[Iaude] MPEC B103: 2021 VQ11 [a=2.56,e=0.49,i=28.6,H=18.64]

mpec at marsden.cfa.harvard.edu mpec at marsden.cfa.harvard.edu
Tue Jan 23 09:33:04 EST 2024


M.P.E.C. 2024-B103                             Issued 2024 January 23, 14:31 UT

     The Minor Planet Electronic Circulars contain information on unusual
         minor planets, routine data on comets and natural satellites,
         and occasional editorial announcements.  They are published
    on behalf of Division F of the International Astronomical Union by the
          Minor Planet Center, Smithsonian Astrophysical Observatory,
                          Cambridge, MA 02138, U.S.A.
			  
             Prepared using the Tamkin Foundation Computer Network

                              MPC at CFA.HARVARD.EDU
            URL https://www.minorplanetcenter.net/    ISSN 1523-6714

                                   2021 VQ11                                    


                           Revision to MPEC 2021-V299                           

Additional Observations:
     K21V11Q  C2016 06 05.44717016 16 46.315-14 10 33.82         23.27GVEB103F51
     K21V11Q  C2016 06 05.46992816 16 44.874-14 10 23.71         22.61GVEB103F51
     K21V11Q  C2016 06 05.48137916 16 44.160-14 10 18.17         23.09GVEB103F51
     K21V11Q  C2017 10 31.60350709 04 05.946-06 21 24.63         21.52GVEB103F51
     K21V11Q  C2017 10 31.61454009 04 06.702-06 21 41.24         22.02GVEB103F51
     K21V11Q  C2017 10 31.62557709 04 07.531-06 21 58.27         21.93GVEB103F51
     K21V11Q  C2017 10 31.63670509 04 08.346-06 22 15.38         21.97GVEB103F51
     K21V11Q  C2017 12 12.57429809 29 49.845-22 48 34.05         22.33GVEB103F51
     K21V11Q  C2017 12 23.53752 09 26 16.124-26 09 48.50         22.1 wUEB103F51
     K21V11Q  C2017 12 23.54721 09 26 15.779-26 09 58.05         22.0 wUEB103F51
     K21V11Q  C2017 12 23.55688 09 26 15.454-26 10 07.72         22.4 wUEB103F51
     K21V11Q  C2017 12 23.56656 09 26 15.102-26 10 17.38         21.8 wUEB103F51

Observer details:
F51 Pan-STARRS 1, Haleakala.  Observers J. Herman, T. Lowe, P. Minguez, A.
    Schultz, I. Smith, J. Bulger, M. Willman.  Measurers K. Chambers, T. de
    Boer, J. Fairlamb, H. Gao, M. Huber, C.-C. Lin, E. Magnier, Y.
    Ramanjooloo, R. Wainscoat, R. Weryk, S. Chastel, L. Denneau, H.
    Flewelling, E. Lilly, C. Waters.  1.8-m Ritchey-Chretien + CCD.

First and last observations above in comparison with prediction:
Residuals in seconds of arc, reference and Delta-T
160605 F51 34.5- 11.2-    171223 F51 52.4-  7.5-    MPO688033   +0.06 days

Orbital elements:
2021 VQ11                                                Earth MOID = 0.3322 AU
Epoch 2023 Sept. 13.0 TT = JDT 2460200.5                Veres                   
M 182.41750              (2000.0)            P               Q                  
n   0.24095607     Peri.  154.64005     +0.78770540     -0.45961361             
a   2.5576678      Node   239.00630     +0.45149005     +0.88373141             
e   0.4942461      Incl.   28.58994     +0.41913833     -0.08817093             
P   4.09           H   18.64          G   0.15           U   1                  
Residuals in seconds of arc
160605 F51  0.1+  0.4+    211110 F51  0.0   0.0     211128 I52 (0.9-  0.4-)
160605 F51  0.0   0.2-    211111 L01  0.2+  0.2+    211128 I52  0.1+  0.1-
160605 F51  0.1+  0.1-    211111 L01  0.4+  0.2-    211128 I52  0.1+  0.3+
171031 F51  0.6+  0.1-    211111 L01  0.1+  0.1+    211128 I52  0.6+  0.7+
171031 F51  0.2-  0.2+    211111 L01  0.4+  0.7+    211201 807  0.1+  0.2-
171031 F51  0.1+  0.0     211111 V06  0.3-  0.1-    211201 807  0.1+  0.0
171031 F51  0.1+  0.1-    211111 V06  0.1+  0.1-    211201 807  0.2+  0.1-
171212 F51  0.4+  0.7-    211111 V06  0.2-  0.1+    211201 291  0.3+  0.3-
171223 F51  0.0   0.1+    211111 V06  0.3-  0.0     211201 291  0.2+  0.2+
171223 F51  0.1-  0.2+    211111 691  0.3-  0.1+    211202 691  0.0   0.5-
171223 F51  0.1+  0.1+    211111 691  0.3+  0.1-    211202 691  0.1-  0.1-
171223 F51  0.1-  0.0     211111 691  0.2-  0.2+    211203 691  0.1-  0.3+
211109 F52  0.1+  0.0     211112 291  0.5-  0.3+    211203 691  0.9-  0.5-
211109 F52  0.1-  0.2+    211112 291  0.1+  0.1+    211203 691  0.0   0.1-
211109 F52  0.2+  0.1+    211112 291  0.2-  0.1-    211215 807  0.2-  0.2-
211110 H21  0.0   0.4-    211112 V06  0.1-  0.3-    211215 807  0.1-  0.1-
211110 H21  0.2+  0.0     211112 V06  0.0   0.1+    211215 807  0.4-  0.1+
211110 291  0.4-  0.5-    211112 V06  0.3-  0.1-    220104 807  0.2-  0.0
211110 291  0.1-  0.3-    211112 V06  0.2-  0.0     220104 807  0.1-  0.4+
211110 291  0.0   0.2-    211115 V06  0.1+  0.0     220104 807  0.1-  0.3-
211110 F51  0.1+  0.0     211115 V06  0.2+  0.1+    220212 V06  0.3+  0.5-
211110 F51  0.0   0.0     211115 V06  0.2+  0.1-    220212 V06  0.4-  0.2-
211110 F51  0.0   0.1-    211115 V06  0.2+  0.0     220212 V06  0.0   0.2-

Ephemeris:
2021 VQ11                a,e,i = 2.56, 0.49, 29                  q = 1.2936
Date    TT    R. A. (2000) Decl.     Delta      r    Elong.  Phase     V
2023 12 24    15 24 32.5 -24 40 54   4.4984  3.7589    36.9     9.0    25.4
...
2024 01 08    15 40 27.0 -25 10 56   4.3206  3.7408    48.4    11.3    25.4
...
2024 01 16    15 48 22.8 -25 23 13   4.2113  3.7302    54.7    12.4    25.4
...
2024 01 22    15 54 00.2 -25 30 33   4.1235  3.7219    59.5    13.2    25.3
2024 01 23    15 54 54.6 -25 31 36   4.1084  3.7205    60.3    13.3    25.3
2024 01 24    15 55 48.5 -25 32 37   4.0933  3.7190    61.1    13.4    25.3
...
2024 01 30    16 01 00.1 -25 37 40   3.9998  3.7102    66.0    14.0    25.3
...
2024 02 07    16 07 20.6 -25 41 36   3.8696  3.6978    72.7    14.7    25.2
...
2024 02 22    16 17 03.7 -25 39 36   3.6132  3.6728    85.6    15.6    25.1

A. U. Tomatic                (C) Copyright 2024 MPC           M.P.E.C. 2024-B103





More information about the Iaude mailing list